Vertical_Velocity
3 3 -8 -2 -1 3 6 11 4 -0 1 6 -11 -0 -4 -2 -5 -0 1 1 -1 -1 0 -4 -0 1 -1 1 0 2 1 1 -0 -1 0 0 -0 -2 -0 0 -0 -1 0 -0
1 -8 -1 2 6 1 -2 4 -2 -6 3 18 7 -7 -9 3 -2 1 5 2 -3 -1 -1 1 2 2 1 -0 1 2 0 1 -1 0 1 1 0 -1 0 -0 -1 -0 -0 -1
2 -1 2 5 3 9 -2 -3 -4 1 6 6 5 2 4 3 6 6 -1 0 -4 2 -5 -1 -0 3 3 1 1 1 2 0 1 2 0 1 0 1 2 0 -1 -0 -1 -1
-0 1 -4 1 -9 8 5 4 -0 -0 6 -12 9 -12 -6 -2 9 2 -3 1 -2 -5 -4 -4 -2 1 3 3 1 2 2 1 2 0 0 -0 0 -1 0 -0 -1 -1 -2 -0
-5 0 0 1 -8 6 -12 1 4 2 2 9 7 9 -14 7 3 -1 -1 1 5 2 -2 0 -3 -1 3 3 0 -0 1 1 1 -1 -0 -0 -1 0 1 -0 -1 -1 -1 -1
-5 -1 -3 -9 -4 -6 13 4 3 2 0 3 3 4 -6 -3 -13 -7 -5 -1 3 6 8 1 -2 1 3 1 0 -1 1 -0 -0 -0 -0 -0 -1 1 1 -0 -1 -0 -0 -0
1 -4 5 4 -0 6 7 4 0 -2 -2 -7 2 2 -8 4 1 2 4 4 1 3 1 3 -0 1 1 0 -1 1 -0 1 1 0 0 -0 0 1 -0 -1 -1 -0 0 0
-2 -4 -3 -2 -1 -5 1 8 -5 -5 -2 -5 6 -6 -5 -6 -1 5 6 4 4 1 2 2 1 1 0 1 0 1 0 1 1 1 -0 0 -0 -0 0 0 -0 2 -0 -1
-1 -2 4 1 5 8 -11 2 5 1 1 1 -2 -2 2 3 -1 -2 -0 0 0 2 1 1 2 1 -0 0 0 1 1 1 1 0 0 1 0 -1 -1 -1 -0 -1 -1 -1
1 2 -1 3 4 3 0 11 -1 1 -4 -1 -2 1 -11 -11 -5 -3 -4 -2 1 3 1 1 1 0 2 1 0 0 1 1 1 1 1 0 -0 -0 -1 -1 -1 0 -1 -0
-3 2 -1 2 -9 -2 1 -2 0 -1 1 -6 -3 -7 -6 -1 2 3 3 3 3 1 2 1 -1 -0 0 0 1 2 2 1 2 1 2 1 1 0 0 -0 1 2 2 1
-1 12 0 -1 1 1 -1 3 15 0 -4 -0 1 -5 4 2 2 -1 1 1 -0 -1 -1 -1 0 1 0 1 1 1 1 1 1 0 0 -1 -1 -3 -0 -1 -1 0 1 -1
-2 1 2 -3 4 5 -9 -5 5 4 5 -5 -3 -23 -5 -3 -3 4 4 2 2 1 1 0 -1 0 0 0 1 2 2 3 3 2 1 -0 -1 -1 1 -0 -0 1 1 2
8 6 -10 -18 -5 1 -5 -4 0 1 1 -2 -7 -1 2 1 0 -0 -0 -0 1 1 1 1 1 1 1 1 1 2 1 1 0 -1 -1 -0 0 2 1 -0 1 0 1 0
5 -4 4 6 1 -4 0 5 1 -8 -4 -2 -11 -5 -3 1 2 7 6 -0 -1 0 -0 1 0 -1 -0 -0 0 1 1 1 1 1 1 0 1 1 0 1 0 0 -2 -1
-0 -3 3 -3 4 4 -1 0 -1 9 5 2 -4 -8 4 2 1 -6 3 2 1 0 2 1 -0 -1 1 1 0 -0 -1 -1 -0 0 0 1 -1 -1 -0 1 0 -1 -0 0
5 2 -0 -4 1 6 2 -16 -4 -2 5 13 -13 2 0 1 3 -2 2 2 0 2 1 1 -0 0 0 1 0 0 1 2 0 -0 -0 -1 -0 1 -0 -2 -2 -2 -1 -0
1 7 10 -0 3 -1 5 -4 -1 2 13 5 -2 2 2 3 3 1 -2 1 2 0 -0 0 0 1 0 -0 -0 0 0 0 0 -1 -0 1 1 -2 -1 -0 0 0 1 -0
2 7 -1 -0 -3 -3 -5 -10 -3 -4 -4 -0 -0 -2 1 4 6 -3 0 2 -0 -0 1 -0 -0 0 1 0 -0 -1 0 0 -0 1 -1 -2 -2 -2 -2 -1 -1 -1 -1 -0
3 5 4 5 1 -5 -16 -2 2 1 -21 -9 2 1 -0 4 -4 1 2 1 2 0 1 1 3 2 1 1 0 0 0 0 -0 -1 -2 -2 -2 -2 -0 -1 -1 -1 -4 -3
4 6 -5 3 0 -1 -4 -0 1 8 -23 -4 3 3 -0 -5 5 -0 -0 0 1 0 0 2 2 1 1 0 2 2 -0 -2 -2 -2 -1 -0 -0 -1 -3 -4 -4 -3 -2 -2
-4 -1 -5 10 3 -11 -9 5 1 2 1 -1 -1 -2 -1 2 2 3 4 0 -0 -0 1 1 2 2 2 2 1 -1 -2 -1 -1 -0 -1 -3 -2 0 1 -2 -1 -2 -5 -5
6 -4 -4 2 -1 -0 -3 1 1 -1 3 3 3 3 5 3 -0 -2 -3 0 2 1 1 1 1 3 4 2 -0 -0 -0 -1 -2 -2 -1 -1 -0 -2 -3 -4 -3 -4 -3 -4
4 2 5 12 -5 -0 -0 -0 3 2 1 1 2 -0 -0 1 -5 -0 4 4 2 4 5 6 3 -3 -2 2 0 -0 -1 -0 -0 -2 -1 -1 -2 -2 -1 1 0 -1 -1 -2
6 6 5 -5 4 1 2 -0 -2 -3 -1 -2 -4 -2 -1 -1 2 -1 2 5 6 6 5 2 0 -1 1 2 1 0 0 -1 1 -0 -1 -1 -1 -2 -2 -1 -3 -4 2 -3
13 8 6 2 3 4 6 4 4 3 -1 0 -1 -1 -5 -2 5 10 10 8 6 3 1 0 -1 0 2 1 1 -1 -2 -2 -3 -3 -2 -4 -5 -3 -3 -4 3 3 -2 -1
Height
3082 3082 3080 3086 3089 3091 3093 3094 3096 3100 3105 3107 3107 3111 3116 3120 3123 3126 3128 3129 3130 3132 3134 3136 3138 3140 3141 3142 3143 3143 3144 3144 3144 3143 3143 3142 3141 3140 3138 3137 3136 3135 3134 3134
3081 3078 3083 3086 3088 3090 3091 3092 3094 3098 3100 3104 3104 3105 3111 3116 3118 3121 3123 3124 3125 3127 3129 3131 3134 3135 3136 3137 3138 3138 3139 3139 3139 3138 3137 3137 3136 3135 3134 3134 3133 3132 3131 3130
3077 3080 3080 3082 3084 3087 3088 3090 3092 3095 3097 3097 3099 3099 3103 3108 3112 3115 3116 3119 3120 3123 3124 3125 3128 3130 3131 3132 3133 3133 3134 3133 3133 3132 3132 3132 3131 3131 3130 3129 3129 3128 3128 3127
3076 3076 3077 3078 3078 3083 3084 3088 3089 3091 3093 3093 3095 3093 3096 3101 3106 3107 3110 3113 3114 3116 3118 3120 3122 3124 3126 3126 3126 3127 3128 3127 3127 3126 3126 3126 3126 3126 3126 3126 3125 3125 3124 3124
3073 3073 3073 3074 3075 3080 3082 3084 3087 3087 3087 3089 3088 3091 3090 3096 3098 3101 3104 3107 3110 3111 3112 3114 3115 3117 3120 3121 3121 3120 3121 3121 3120 3120 3121 3121 3122 3122 3122 3122 3121 3121 3121 3120
3069 3069 3068 3070 3073 3075 3080 3081 3084 3085 3087 3084 3082 3085 3084 3087 3089 3094 3097 3100 3104 3106 3107 3109 3110 3111 3113 3114 3114 3114 3115 3115 3115 3115 3116 3117 3117 3118 3118 3117 3117 3117 3116 3116
3067 3066 3065 3067 3070 3073 3075 3077 3081 3087 3089 3082 3079 3081 3080 3082 3084 3087 3090 3093 3096 3099 3101 3103 3104 3105 3106 3107 3108 3109 3109 3109 3110 3111 3112 3112 3113 3113 3113 3113 3112 3111 3111 3111
3065 3065 3063 3064 3066 3069 3071 3073 3071 3079 3079 3076 3076 3074 3075 3079 3080 3082 3085 3088 3091 3093 3095 3097 3098 3099 3100 3101 3102 3103 3103 3104 3105 3106 3107 3108 3109 3109 3108 3107 3107 3106 3105 3105
3062 3062 3060 3061 3063 3067 3068 3068 3070 3070 3074 3073 3069 3072 3072 3074 3076 3078 3080 3083 3085 3088 3090 3091 3092 3093 3095 3096 3097 3098 3098 3099 3100 3101 3102 3103 3103 3103 3103 3102 3101 3099 3098 3097
3060 3059 3059 3059 3061 3063 3063 3066 3067 3068 3073 3075 3064 3064 3065 3069 3071 3072 3075 3078 3080 3082 3084 3085 3086 3088 3090 3091 3092 3093 3094 3095 3096 3097 3097 3098 3098 3097 3096 3095 3094 3092 3091 3090
3057 3058 3057 3058 3056 3056 3059 3058 3060 3063 3064 3065 3067 3059 3060 3063 3065 3067 3069 3072 3074 3076 3078 3080 3082 3083 3085 3086 3087 3089 3090 3090 3091 3091 3092 3092 3091 3090 3089 3088 3086 3085 3084 3083
3051 3053 3051 3053 3052 3054 3055 3054 3054 3053 3058 3058 3057 3056 3056 3058 3060 3063 3066 3068 3070 3072 3074 3076 3077 3079 3081 3082 3083 3084 3085 3085 3085 3085 3084 3084 3083 3081 3080 3079 3078 3076 3076 3075
3046 3045 3046 3048 3049 3045 3046 3048 3050 3050 3050 3048 3053 3052 3055 3057 3057 3059 3061 3064 3065 3068 3070 3071 3073 3074 3076 3077 3078 3079 3079 3079 3078 3078 3076 3075 3073 3072 3071 3070 3069 3069 3068 3068
3039 3038 3036 3036 3037 3038 3037 3038 3043 3046 3045 3043 3042 3046 3048 3050 3052 3054 3056 3059 3062 3064 3065 3066 3067 3069 3070 3071 3072 3072 3072 3071 3070 3069 3068 3067 3066 3065 3064 3064 3063 3063 3062 3062
3032 3029 3031 3031 3032 3033 3034 3033 3033 3034 3038 3039 3040 3042 3046 3048 3050 3051 3053 3055 3056 3058 3060 3061 3062 3064 3064 3064 3064 3064 3063 3063 3062 3062 3061 3061 3061 3060 3059 3059 3058 3057 3056 3054
3023 3023 3025 3025 3026 3027 3026 3028 3029 3029 3029 3031 3034 3034 3039 3042 3043 3044 3046 3049 3050 3052 3054 3056 3057 3057 3057 3057 3057 3057 3057 3056 3056 3056 3056 3056 3055 3055 3054 3052 3051 3049 3048 3045
3016 3017 3019 3019 3021 3021 3020 3016 3019 3021 3022 3025 3024 3027 3032 3034 3036 3037 3040 3042 3044 3046 3047 3049 3049 3049 3049 3049 3049 3049 3050 3050 3050 3050 3050 3050 3049 3048 3046 3045 3043 3041 3038 3035
3009 3012 3013 3014 3016 3019 3007 3009 3010 3012 3015 3018 3019 3021 3024 3026 3028 3030 3033 3035 3037 3039 3041 3041 3042 3041 3041 3041 3042 3043 3044 3044 3044 3044 3043 3043 3042 3040 3038 3036 3033 3030 3027 3024
3003 3005 3007 3007 3005 3002 3001 3003 3006 3007 3009 3011 3013 3014 3015 3018 3021 3023 3025 3029 3031 3032 3034 3034 3034 3033 3033 3034 3035 3036 3037 3037 3037 3037 3036 3034 3032 3030 3028 3026 3023 3020 3017 3014
2992 2997 2999 2999 2999 2997 2994 2997 3002 3003 3002 3005 3005 3007 3009 3012 3014 3017 3020 3022 3024 3026 3026 3026 3025 3026 3026 3028 3029 3030 3030 3031 3030 3029 3027 3025 3023 3021 3019 3016 3013 3010 3006 3002
2983 2986 2986 2988 2989 2986 2989 2993 2994 2996 2998 2997 2999 3002 3004 3007 3011 3012 3014 3016 3018 3018 3018 3017 3018 3019 3020 3021 3022 3023 3022 3022 3021 3020 3018 3016 3014 3012 3009 3005 3002 2997 2994 2990
2975 2978 2979 2983 2983 2980 2983 2985 2988 2988 2988 2992 2994 2996 2999 3002 3005 3006 3008 3010 3009 3009 3009 3010 3011 3013 3014 3015 3015 3014 3013 3013 3012 3011 3010 3007 3005 3002 2998 2994 2990 2985 2979 2974
2968 2968 2971 2973 2970 2970 2973 2975 2979 2982 2984 2987 2990 2992 2994 2997 2999 3001 3001 3001 3001 3001 3001 3002 3004 3005 3006 3007 3007 3006 3005 3004 3003 3002 3001 2998 2995 2990 2986 2980 2975 2971 2966 2961
2959 2960 2962 2964 2963 2966 2968 2970 2972 2975 2979 2982 2984 2986 2988 2991 2992 2992 2992 2992 2992 2993 2994 2996 2997 2998 2999 3000 3000 2999 2998 2996 2994 2991 2988 2985 2981 2977 2972 2968 2963 2959 2955 2950
2948 2950 2951 2953 2956 2960 2962 2963 2966 2969 2972 2974 2976 2978 2980 2983 2983 2983 2984 2984 2985 2986 2988 2989 2990 2991 2992 2992 2991 2990 2988 2986 2984 2981 2977 2974 2970 2966 2962 2959 2953 2948 2944 2939
2935 2940 2944 2944 2948 2951 2954 2955 2957 2960 2963 2966 2967 2969 2970 2971 2971 2973 2975 2977 2979 2980 2982 2984 2985 2986 2986 2985 2984 2982 2980 2977 2974 2971 2968 2964 2960 2955 2951 2947 2944 2940 2935 2931